Время (UTC), дата Ветер
(°,м/с) 
Видим.   Явления Облачность Т
(°С)
Тd
(°С)
f(%) Тe
(°С)
Pmin
(гПа)
dP
(гПа)
Po
(мм)
O2
(г/м3)
Тmin Tmax R s Состояние
почвы
00 01.12.11 280 (З) >10 км  {снег}  10/5 210 м 
[St]
-1.7 -3.1 90 -4  1024.2  -0.5  726  295           
03 01.12.11 280 (З) >10 км  позёмок  10/6 800 м средняя 
[Sc|Ac und]
-2.9 -3.1 99 -6  1024.2  -0.2  726  296        равномерный
мокрый или
старый снег
100% 
06 01.12.11 270 (З) >10 км    10/6 1000 м средняя 
[Sc|Ac und]
-1.6 -5 78 -4  1025.2  1.1  727  295  -3.5         
09 01.12.11 260 (З) >10 км    9/3 300 м средняя 
[Sc|Ac As]
-0.7 -3.1 84 -5  1023.8  -1.1  726  294           
12 01.12.11 270 (З) >10 км    9/3 600 м средняя 
[Sc diur, vesp|Ac trans]
-0.2 -2.4 85 -4  1022.9  -0.7  725  293           
15 01.12.11 270 (З) >10 км    10/5 600 м средняя 
[Sc|Ac und]
+0.7 -2.2 81 -3  1022.8  725  292    +0.7       
18 01.12.11 250 (З) >10 км  слаб. снег  10/8 600 м средняя 
[Sc|Ac und]
+1.8 -2.6 73 -1  1022.5  0.1  725  291    +0.7       
21 01.12.11 250 (З) >10 км  {снег}  10/4 600 м средняя 
[Sc|Ac und]
+1.4 -2.8 74 -2  1021.6  -0.9  725  291           
00 02.12.11 210 (ЮЗ) >10 км  {снег}  10/4 1000 м средняя 
[Sc|Ac und]
+1.1 -4.2 68 1020.5  -1.1  724  291           
03 02.12.11 210 (ЮЗ) >10 км    8/4 1000 м средняя 
[Sc|Ac und]
+0.9 -3.9 70 -2  1020  -0.5  723  291        равномерный
мокрый или
старый снег
100% 
06 02.12.11 260 (З) >10 км    10/4 300 м средняя 
[Sc|Ac und]
+1.8 -1.3 80 -2  1020.5  0.7  724  290  -0    0.0  равномерный
мокрый или
старый снег
100% 
09 02.12.11 260 (З) >10 км  слаб. снег  10/8 300 м средняя 
[Sc|Ac und]
+0.7 -0.6 91 -3  1021.4  0.6  724  291           
12 02.12.11 280 (З) 4000 м  слаб. ливневой снег  10/8 360 м кучево-дожд., средняя 
[Cb cap|Ac und]
+0.1 -2.1 85 -2  1022.6  725  292           
15 02.12.11 240 (ЮЗ) 10 км  слаб. ливневой снег  10/8 210 м кучево-дожд., средняя 
[Cb cap|Ac und]
-0.4 -1.2 94 -3  1024.1  1.4  726  293    +2       
18 02.12.11 250 (З) 10 км  {ливн. осадки}  10/8 120 м средняя 
[St|Ac und]
-0.1 -0.7 96 -3  1024.9  0.8  727  293    +2  0.4     
21 02.12.11 250 (З) 3000 м  дымка{снег}  10/10 150 м 
[Ns]
+0.2 -0.3 96 -3  1024.8  0.1  727  293           
00 03.12.11 270 (З) 2500 м  слаб. снег{дождь}  10/10 150 м 
[Ns]
+0.3 -0.1 97 -3  1025.3  0.4  727  293           
03 03.12.11 280 (З) 10 км  {снег}  10/8 240 м средняя 
[St|Ac und]
-0.7 -1.7 93 -4  1026.2  0.7  728  294        мокрый или
старый снег
50-90% 
06 03.12.11 290 (З) 4000 м  слаб. снег  10/10 210 м 
[Ns]
-1.2 -2 94 -4  1027.9  1.5  729  295  -0.7    0.4     
09 03.12.11 290 (З) 2000 м  дымка{снег}  10/10 120 м 
[St]
-1.1 -1.6 96 -3  1028.6  0.6  729  295           
12 03.12.11 310 (СЗ) >10 км  {снег}  10/10 450 м 
[St]
-0.4 -2.4 86 -1  1028.4  729  294           
15 03.12.11 150 (ЮВ) >10 км    10/6 600 м средняя 
[Sc|Ac und]
-0.7 -2 91 -2  1029.1  0.6  730  295    -0.3       
18 03.12.11 190 (Ю) >10 км    8/4 600 м средняя 
[Sc|Ac trans]
-2.7 -3.5 94 -5  1028.7  -0.8  729  297    -0.3       
21 03.12.11 220 (ЮЗ) >10 км    10/6 600 м средняя 
[Sc|Ac und]
-0.5 -2.4 87 -2  1027.8  -0.4  729  294           
00 04.12.11 220 (ЮЗ) >10 км    8/4 600 м средняя 
[Sc|Ac trans]
-1.2 -3.1 87 -2  1027.5  -0.5  728  295           
03 04.12.11 190 (Ю) >10 км    8/4 1000 м средняя 
[Sc|Ac trans]
-0.6 -2.7 86 -1  1026.9  -0.5  728  294        мокрый или
старый снег
50-90% 
06 04.12.11 180 (Ю) >10 км    9/4 1000 м средняя 
[Sc|Ac As]
+1 -2.4 78 -1  1026.7  0.2  728  293  -2.8      мокрый или
старый снег
50-90% 
09 04.12.11 150 (ЮВ) >10 км    8/4 1000 м средняя 
[Sc|Ac trans]
+4.7 -1.6 64 +4  1025.6  -0.3  728  288           
12 04.12.11 160 (Ю) >10 км    4/4 1000 м 
[Sc]
+4.2 -2.4 62 +2  1025.3  -0.4  728  289           
15 04.12.11 180 (Ю) >10 км    3/0 средняя 
[Ac trans]
+4.2 -2.4 62 +2  1025.3  0.2  728  289    +5       
18 04.12.11 170 (Ю) >10 км    ясно 
-0.9 -4.4 77 -3  1026.1  -0.5  727  295    +5       
21 04.12.11 160 (Ю) >10 км    3/0 средняя 
[Ac trans]
-0.3 -4.5 73 -2  1025.4  -0.5  727  294           
00 05.12.11 180 (Ю) >10 км    ясно 
+0.2 -5.1 67 -2  1024.7  -0.6  727  293           
03 05.12.11 170 (Ю) >10 км    3/0 средняя 
[Ac trans]
+1.6 -5.1 61 1023.5  -0.8  726  291        мокрый или
старый снег
10-40% 
06 05.12.11 180 (Ю) >10 км    3/0 средняя 
[Ac trans]
+5.4 -3.1 54 +4  1022.9  -0.8  726  287  -1.3         
09 05.12.11 150 (ЮВ) >10 км    5/0 верхняя 
[Ci]
+10.5 -1 45 +10  1020.8  -1  725  281           
12 05.12.11 190 (Ю) >10 км    3/0 верхняя 
[Ci fib]
+10 -2.7 41 +9  1020  -0.8  725  282           
15 05.12.11 170 (Ю) >10 км    ясно 
+5.2 -5.4 46 +5  1021.3  0.3  725  287    +11.8       
18 05.12.11 140 (ЮВ) >10 км    ясно 
+4.8 -3 57 +3  1021.2  -0.2  725  287    +11.8       
21 05.12.11 130 (ЮВ) >10 км    ясно 
+3.2 -3.4 62 +2  1021.1  -0.4  725  289           
00 06.12.11 150 (ЮВ) >10 км    ясно 
+3.9 -3.9 57 +3  1019.9  -1  724  288           
03 06.12.11 150 (ЮВ) >10 км    ясно 
+5.3 -5.5 46 +3  1019.5  0.1  724  287          мокрый или
старый снег
10-40% 
06 06.12.11 200 (Ю) >10 км    3/0 верхняя 
[Ci fib]
+6.2 -5.4 43 +7  1019.9  0.5  724  286  +2.2        мокрый или
старый снег
10-40% 
09 06.12.11 090 (В) >10 км    5/0 верхняя 
[Ci fib]
+10.8 -3.5 36 +11  1018  -0.9  723  281           
12 06.12.11 080 (В) >10 км    8/0 средняя, верхняя 
[Ac trans|Ci]
+9.2 +1.1 57 +9  1017.5  -0.7  723  282           
15 06.12.11 120 (ЮВ) >10 км    3/0 верхняя 
[Ci fib]
+4.2 -1.1 68 +2  1018.3  -0.3  723  287    +12.7       
18 06.12.11 150 (ЮВ) >10 км    6/0 средняя, верхняя 
[Ac trans|Ci]
+3.4 -4 58 +1  1017.7  -0.7  722  288    +12.7       
21 06.12.11 130 (ЮВ) >10 км    3/0 верхняя 
[Ci fib]
+3.2 -5.5 53 +1  1017.2  -0.6  722  288           
00 07.12.11 170 (Ю) >10 км    4/0 средняя 
[Ac trans]
+3.4 -6.1 50 +3  1016.7  -0.4  721  288           
03 07.12.11 300 (СЗ) >10 км    10/4 600 м средняя 
[Sc|Ac und]
+8.1 -9.1 28 +7  1016.5  0.6  722  283           
06 07.12.11 150 (ЮВ) >10 км    10/3 1000 м средняя 
[Sc|Ac trans]
+6.4 -7.5 36 +6  1017.1  0.3  722  285  +0.6         
09 07.12.11 180 (Ю) >10 км    10/3 1000 м средняя 
[Sc|Ac und]
+9.2 -7.4 30 +9  1016.2  -0.4  722  282           
12 07.12.11 160 (Ю) >10 км    6/0 средняя 
[Ac trans]
+10 -6.1 32 +11  1015.9  0.1  722  281           
15 07.12.11 230 (ЮЗ) >10 км    8/0 средняя 
[Ac trans]
+2.9 -0.8 77 +4  1017.6  0.4  722  288    +12.1       
18 07.12.11 010 (С) >10 км    6/0 средняя 
[Ac trans]
+3.3 -1.1 73 +4  1017.3  -0.2  722  287    +12.1       
21 07.12.11 150 (ЮВ) >10 км    3/0 средняя 
[Ac trans]
-1.1 -2.3 91 -1  1017.2  -1  721  292           
00 08.12.11 140 (ЮВ) >10 км    3/0 средняя 
[Ac trans]
-0.8 -2.9 86 -2  1015.9  -1.2  720  291           
03 08.12.11 130 (ЮВ) >10 км    5/0 средняя 
[Ac trans]
-1.4 -3.5 86 -3  1014.5  -1.5  719  292           
06 08.12.11 130 (ЮВ) >10 км    10/0 средняя, верхняя 
[Ac trans|Ci fib]
-1.3 -2.9 89 -2  1013.8  -0.6  719  291  -2.8         
09 08.12.11 110 (В) >10 км    9/0 средняя, верхняя 
[Ac trans|Ci fib]
+4.7 -1.5 64 +4  1011  -1.5  718  284           
12 08.12.11 120 (ЮВ) >10 км    10/0 средняя, верхняя 
[Ac trans|Ci fib]
+4.8 +0.1 72 +4  1010.4  -0.5  717  284           
15 08.12.11 220 (ЮЗ) >10 км    10/0 средняя 
[Ac und]
+2.8 -0.6 78 +2  1011.7  0.8  718  286    +5.6       
18 08.12.11 330 (СЗ) >10 км    9/0 средняя, верхняя 
[Ac trans|Ci fib]
+7.2 -2.8 49 +6  1011.4  0.6  718  282    +7.6       
21 08.12.11 320 (СЗ) >10 км    9/0 средняя, верхняя 
[Ac trans|Ci fib]
+6.4 -0.9 60 +5  1012.3  0.7  719  283           
00 09.12.11 300 (СЗ) >10 км    10/5 720 м средняя 
[Sc|Ac und]
+6.1 +1.8 74 +6  1013  0.5  719  283           
03 09.12.11 310 (СЗ) >10 км    10/5 700 м средняя 
[Sc|Ac und]
+5.1 +2.3 82 +4  1013.8  0.6  720  284           
06 09.12.11 320 (СЗ) >10 км    10/6 600 м средняя 
[Sc|Ac und]
+4.6 +2.2 84 +4  1015.3  1.3  721  285  +2.2         
09 09.12.11 310 (СЗ) 2000 м  слаб. дождь  10/8 300 м средняя 
[Sc|Ac und]
+4 +3.4 96 +3  1016.2  0.8  721  286           
12 09.12.11 320 (СЗ) 2000 м  слаб. дождь  10/8 100 м средняя 
[Sc|Ac und]
+3.7 +3.3 97 +2  1017.4  1.1  722  286           
15 09.12.11 290 (З) 2000 м  слаб. дождь  10/8 100 м средняя 
[St|Ac und]
+3.2 +2.8 97 +1  1019.3  1.7  723  288    +5.1       
18 09.12.11 300 (СЗ) 4000 м  слаб. дождь  10/8 120 м средняя 
[St|Ac und]
+2.3 +2 98 1020.9  1.3  724  289    +5.1     
21 09.12.11 270 (З) 1200 м  слаб. дождь  10/8 60 м средняя 
[St|Ac und]
+1.8 +1.4 97 -1  1022.5  1.4  725  290           
00 10.12.11 280 (З) 0400 м  туман{дождь}  ?/?  
+2 +1.7 98 -1  1024.1  1.5  726  290           
03 10.12.11 290 (З) 2000 м  дымка{туман}  10/10 150 м 
[St]
+0.9 +0.7 98 -1  1025.4  1.1  727  292           
06 10.12.11 260 (З) >10 км  {туман}  10/8 330 м средняя 
[Sc|Ac und]
-0.1 -1.5 90 -3  1027.3  1.6  728  294  +0.9       
09 10.12.11 270 (З) >10 км    10/8 360 м средняя 
[Sc|Ac und]
+0.2 -1.1 91 -4  1026.9  -0.4  728  293           
12 10.12.11 280 (З) 0900 м  слаб. переохл. морось (гололёд){туман} [диам. гололёда 1 мм]  ?/?  
-0.9 -1.2 98 -3  1027.7  0.5  729  295           
15 10.12.11 260 (З) 4000 м  дымка{морось, туман} [диам. гололёда 1 мм]  10/10 270 м 
[St]
-1.1 -1.9 94 -4  1028.6  0.8  729  295    +0.9       
18 10.12.11 250 (З) >10 км  {морось, туман} [диам. гололёда 1 мм]  3/1 300 м верхняя 
[Sc|Ci fib]
-3.3 -4.2 94 -4  1029  0.1  729  298    +0.9  0.0     
21 10.12.11 160 (Ю) >10 км    ясно 
-4 -4.6 95 -5  1029  -0.2  729  299           
00 11.12.11 230 (ЮЗ) >10 км    ясно 
-4.3 -5.4 92 -7  1028.9  0.1  729  299           
03 11.12.11 210 (ЮЗ) >10 км  [диам. сложн. отлож. 2 мм]  ясно 
-2.9 -4.9 86 -4  1027.6  -0.9  728  297           
06 11.12.11 160 (Ю) >10 км    3/0 средняя 
[Ac trans]
+1.3 -1.9 79 1026.5  -0.3  728  292  -4.4        замёрзшая 
09 11.12.11 160 (Ю) >10 км    5/0 средняя 
[Ac trans]
+5.8 -1.4 60 +3  1023.9  -1.5  727  287           
12 11.12.11 140 (ЮВ) >10 км    8/8 <0100 м средняя 
[Ac trans]
+4.8 -2 61 +3  1022.5  -1.6  726  288           
15 11.12.11 170 (Ю) >10 км    4/0 средняя 
[Ac trans]
+1.8 -3.3 69 1023.1  0.1  726  291    +5.9       
18 11.12.11 190 (Ю) >10 км    10/3 1000 м средняя 
[Sc|Ac und]
+3.5 -2.9 63 +2  1022.4  -0.3  725  289    +5.9       
21 11.12.11 300 (СЗ) >10 км    10/5 1000 м средняя 
[Sc|Ac und]
+4.6 -2.8 59 +3  1022.4  0.2  726  288           
00 12.12.11 280 (З) >10 км  слаб. дождь  10/8 500 м средняя 
[Sc|Ac und]
+2.9 +1.1 88 1024.4  1.6  727  290           
03 12.12.11 350 (С) 2000 м  слаб. дождь  н/о 
[Sc diur, vesp]
+0.6 +0.1 96 -2  1026.5  1.6  728  293           
06 12.12.11 010 (С) 2000 м  слаб. снег{дождь}  10/10 150 м 
[Ac und]
-0 -0.3 98 +1  1029.2  2.4  730  294  +0.6       
09 12.12.11 тихо ()   4000 м  дымка{снег}  10/10 120 м 
[Ns]
+0.8 +0.4 97 +1  1030  0.9  731  293           
12 12.12.11 240 (ЮЗ) 4000 м  дымка{снег}  8/6 270 м средняя 
[St|Ac trans]
+2.6 +1 89 +3  1029.6  731  291           
15 12.12.11 280 (З) >10 км    8/5 300 м средняя 
[Sc|Ac trans]
-1.2 -1.8 96 -1  1031.6  1.1  731  296    +2.7       
18 12.12.11 090 (В) 0800 м  туман [диам. гололёда 1 мм]  8/3 600 м средняя 
[Sc|Ac trans]
-1.5 -1.7 99 -1  1031.9  0.2  732  297    +2.7  0.8     
21 12.12.11 140 (ЮВ) 0900 м  туман [диам. гололёда 2 мм]  6/4 120 м средняя 
[St|Ac trans]
-3.3 -3.5 99 -4  1031.6  -0.6  731  299           
00 13.12.11 130 (ЮВ) 10 км  {туман} [диам. гололёда 3 мм]  9/3 300 м средняя 
[Sc|Ac trans]
-0.8 -1.1 98 -2  1030.6  -0.5  731  295           
03 13.12.11 140 (ЮВ) 1100 м  дымка [диам. гололёда 3 мм]  9/3 300 м средняя 
[Sc|Ac trans]
-1.5 -1.7 99 -3  1030.9  -0.1  731  296           
06 13.12.11 170 (Ю) 0400 м  туман [диам. гололёда 3 мм]  ?/?  
-0.2 -0.4 99 -3  1030.6  731  295  -3.4         
09 13.12.11 150 (ЮВ) 4000 м  дымка{туман}  9/5 120 м средняя 
[St|Ac trans]
+2.3 +2 98 +1  1029.4  -0.6  730  291           
12 13.12.11 120 (ЮВ) 10 км  {туман}  8/0 средняя 
[Ac trans]
+3.5 +2.1 90 +2  1028.2  -0.9  730  290           
15 13.12.11 160 (Ю) 10 км    4/3 200 м средняя 
[St|Ac trans]
+0.6 +0.1 96 -2  1029.1  0.3  730  293    +4.8       
18 13.12.11 180 (Ю) 4000 м  дымка  6/3 200 м средняя 
[St|Ac trans]
-0.5 -0.8 98 -4  1028.8  -0.5  729  294    +4.8       
21 13.12.11 140 (ЮВ) 10 км    8/0 средняя 
[Ac trans]
+0.5 -0.1 96 -2  1027.8  -0.7  729  293           
00 14.12.11 120 (ЮВ) 2000 м  дымка  10/5 100 м средняя 
[St|Ac und]
+0.4 +0 97 -1  1027.9  729  293           
03 14.12.11 110 (В) 4000 м  дымка  10/0 средняя 
[Ac und]
+0 -0.3 98 -2  1027.4  -0.5  729  294           
06 14.12.11 100 (В) 10 км    10/0 средняя 
[Ac und]
+0.4 -0.1 96 -1  1027.6  -0.5  729  293  -0.5         
09 14.12.11 110 (В) >10 км    10/0 средняя 
[Ac und]
+3.3 +1.8 90 +2  1026.3  -0.6  728  290           
12 14.12.11 120 (ЮВ) >10 км    8/0 средняя 
[Ac trans]
+4.2 +1.5 83 +4  1025.9  -0.2  728  289           
15 14.12.11 120 (ЮВ) >10 км    10/0 средняя 
[Ac und]
+1.1 +0.2 94 -1  1027.1  0.5  728  292    +5       
18 14.12.11 120 (ЮВ) 2000 м  дымка  8/0 средняя 
[Ac trans]
-0.6 -0.9 98 -3  1027.6  0.1  729  294    +5       
21 14.12.11 130 (ЮВ) 10 км  {туман}  8/0 средняя 
[Ac trans]
-0.6 -0.9 98 -3  1027.8  0.2  729  294           
00 15.12.11 140 (ЮВ) 10 км  {туман}  8/0 средняя 
[Ac trans]
-0.3 -0.6 98 -3  1028.1  0.3  729  294           
03 15.12.11 140 (ЮВ) 4000 м  дымка  8/0 средняя 
[Ac trans]
-0.3 -0.5 98 -3  1028.2  -0.1  729  294           
06 15.12.11 150 (ЮВ) 3000 м  дымка  10/3 100 м средняя 
[St|Ac und]
+0 -0.3 98 -3  1028.8  0.6  730  294  -1         
09 15.12.11 140 (ЮВ) >10 км    6/3 200 м средняя 
[St|Ac trans]
+3.1 +0.7 84 1027.8  -0.3  729  290           
12 15.12.11 140 (ЮВ) >10 км    3/3 300 м средняя 
[Sc|Ac trans]
+3.4 +0.9 84 +1  1027.3  -0.4  729  290           
15 15.12.11 140 (ЮВ) >10 км    3/3 300 м 
[Sc]
+0.1 -0.4 96 -3  1028.9  0.8  730  294    +3.9       
18 15.12.11 150 (ЮВ) 4000 м  дымка  3/3 120 м 
[St]
-1 -1.3 98 -5  1028.3  -0.8  729  295    +3.9       
21 15.12.11 150 (ЮВ) 10 км    3/3 200 м 
[St]
-1.1 -1.4 98 -5  1027.4  -0.8  728  295           
00 16.12.11 150 (ЮВ) 0300 м  туман  ?/?  
-0.4 -0.6 99 -3  1026.5  -0.7  728  294           
03 16.12.11 140 (ЮВ) 2000 м  дымка{туман}  10/10 60 м 
[St]
-1 -1.2 98 -5  1025.6  -1  727  294           
06 16.12.11 130 (ЮВ) 0300 м  туман  ?/?  
-0.5 -0.7 98 -4  1024.6  -0.8  726  293  -1.5         
09 16.12.11 130 (ЮВ) 4000 м  дымка{туман}  10/0 
[St]
+1 +0.7 98 -3  1022.5  -1.7  725  291           
12 16.12.11 130 (ЮВ) 10 км  {туман}  10/10 300 м 
[Sc]
+1.9 +0.7 92 -1  1020.3  -1.9  724  289           
15 16.12.11 130 (ЮВ) 10 км    10/8 330 м средняя 
[Sc|Ac und]
+2.3 +1.1 92 -1  1018.8  -1.3  723  289    +2.3       
18 16.12.11 130 (ЮВ) >10 км    10/10 360 м 
[Sc]
+2.5 +1.1 90 -1  1017  -1.7  722  288    +2.3       
21 16.12.11 140 (ЮВ) >10 км    10/8 360 м средняя 
[Sc|Ac und]
+2 +0.7 91 -1    -0.8  721  288           
00 17.12.11 130 (ЮВ) >10 км    10/8 300 м средняя 
[Sc|Ac und]
+1.6 +0.3 91 -2  1015.8  -0.5  721  288           
03 17.12.11 140 (ЮВ) >10 км    10/8 300 м средняя 
[Sc|Ac und]
+1.5 +0.3 92 -2  1015.6  -0.2  720  289           
06 17.12.11 140 (ЮВ) >10 км    10/8 300 м средняя 
[Sc|Ac und]
+1.7 +0.3 90 -2  1015.9  0.3  721  288  +1.5         
09 17.12.11 140 (ЮВ) >10 км    10/8 300 м средняя 
[Sc|Ac und]
+2.5 +0.7 88 -1  1015.6  0.1  721  287           
12 17.12.11 130 (ЮВ) >10 км    10/8 330 м средняя 
[Sc|Ac und]
+3.4 +1.1 85 1015.2  -0.2  720  286           
15 17.12.11 140 (ЮВ) >10 км    10/6 300 м средняя 
[Sc|Ac und]
+2.8 +1.5 91 -1  1016.4  721  287    +3.7       
18 17.12.11 140 (ЮВ) >10 км    3/0 средняя 
[Ac trans]
+0.1 -0.5 96 -3  1016.7  -0.2  721  290    +3.7       
21 17.12.11 150 (ЮВ) >10 км    3/0 средняя 
[Ac trans]
-0.1 -0.7 96 -3  1016.4  -0.3  721  290           
00 18.12.11 130 (ЮВ) >10 км    5/0 средняя 
[Ac trans]
+0.1 -0.6 95 -4  1016.4  721  290           
03 18.12.11 140 (ЮВ) >10 км    8/0 средняя 
[Ac trans]
+0.6 -0.3 94 -4  1015.9  -0.3  720  290           
06 18.12.11 140 (ЮВ) >10 км    10/5 300 м средняя 
[Sc|Ac und]
+1.4 +0.5 94 -2  1017.1  1.2  721  289  -0.3         
09 18.12.11 160 (Ю) 10  >10 км    10/5 360 м средняя 
[Sc|Ac und]
+3.8 +1.8 87 1017.1  0.6  722  286           
12 18.12.11 120 (ЮВ) >10 км    10/3 300 м средняя 
[Sc|Ac und]
+3.2 +1.7 90 1018.9  1.5  723  288           
15 18.12.11 130 (ЮВ) >10 км    10/5 330 м средняя 
[Sc|Ac und]
+2.1 +1.4 95 -1  1021.8  2.5  725  290    +3.9       
18 18.12.11 140 (ЮВ) >10 км    10/3 200 м средняя 
[St|Ac und]
+2 +1.2 94 1023.4  1.5  726  290    +3.9       
21 18.12.11 130 (ЮВ) >10 км    8/0 средняя 
[Ac trans]
+1.6 +1 96 -1  1025  1.4  727  291           
00 19.12.11 150 (ЮВ) 2000 м  дымка  6/0 средняя, верхняя 
[Ac trans|Ci]
+0.7 +0.3 97 -1  1026.5  1.4  728  292           
03 19.12.11 120 (ЮВ) 4000 м  дымка  10/0 средняя, верхняя 
[Ac As|Ci sp]
+1.6 +1.2 97 1027.4  729  292           
06 19.12.11 120 (ЮВ) 10 км    9/0 средняя 
[Ac trans]
+2.1 +1.5 96 +1  1028.4  1.1  730  291  +0.7         
09 19.12.11 120 (ЮВ) 4000 м  дымка  8/0 средняя 
[Ac As]
+3.7 +2.9 94 +2  1027.5  -0.5  729  289           
12 19.12.11 110 (В) >10 км    8/0 средняя, верхняя 
[Ac As|Ci sp]
+6.5 +4.1 85 +5  1026.3  -0.6  729  286           
15 19.12.11 130 (ЮВ) 10 км    8/0 средняя, верхняя 
[Ac trans|Ci fib]
+1.3 +0.8 96 -1  1028  0.6  729  292    +6.7       
18 19.12.11 130 (ЮВ) 4000 м  дымка  9/6 150 м средняя 
[St|Ac trans]
+0.2 -0 99 -3  1027.2  -0.9  728  293    +6.7       
21 19.12.11 130 (ЮВ) 0300 м  туман  8/8 100 м 
[St]
+0.1 -0.1 99 -3  1026.2  -1  728  293           
00 20.12.11 120 (ЮВ) 0300 м  туман  ?/?  
+0.3 +0.1 99 -3  1025.3  -0.8  727  293           
03 20.12.11 140 (ЮВ) 0900 м  туман  ?/?  
+0.4 +0.2 99 -3  1024.2  -1.1  726  292           
06 20.12.11 140 (ЮВ) 1200 м  дымка{туман}  10/10 60 м 
[St]
+0.6 +0.4 99 -2  1023.3  -0.8  726  292  -0.1         
09 20.12.11 140 (ЮВ) 10 км    10/6 180 м средняя 
[St|Ac und]
+2.9 +2.6 98 1020.1  -2.5  724  288           
12 20.12.11 140 (ЮВ) >10 км    10/5 300 м средняя 
[Sc|Ac und]
+2.9 +1.1 88 1017.7  -2.3  722  288           
15 20.12.11 150 (ЮВ) >10 км    10/6 360 м средняя 
[Sc|Ac und]
+0.7 +0.1 96 -3  1017.1  -1  721  290    +3.5       
18 20.12.11 140 (ЮВ) 10 км    10/8 330 м средняя 
[Sc|Ac und]
+0.6 +0.2 97 -3  1015.9  -1.1  720  290    +3.5       
21 20.12.11 120 (ЮВ) >10 км    10/5 300 м средняя 
[Sc|Ac und]
+1.4 -0.7 86 -1  1014.8  -1.1  720  289           
00 21.12.11 070 (В) >10 км    10/4 300 м средняя 
[Sc|Ac und]
+0.3 -0.7 93 1014.5  -0.5  719  290           
03 21.12.11 120 (ЮВ) >10 км    10/3 600 м средняя 
[Sc|Ac und]
+1.7 -0.7 84 1014.5  -0.4  719  288           
06 21.12.11 130 (ЮВ) >10 км    10/6 600 м средняя 
[Sc|Ac und]
+2.1 -0.4 84 +1  1013.5  -0.2  719  287  +0         
09 21.12.11 330 (СЗ) >10 км    8/0 средняя 
[Ac trans]
+9.4 +3.4 66 +9  1012.4  0.4  719  280           
12 21.12.11 010 (С) >10 км    8/3 600 м средняя 
[Sc|Ac trans]
+9 +3.5 68 +9  1012.9  0.3  720  280           
15 21.12.11 150 (ЮВ) >10 км    6/3 600 м средняя 
[Sc|Ac trans]
+5.7 +2.2 78 +7  1014.9  1.3  721  284    +12.7       
18 21.12.11 300 (СЗ) >10 км    10/5 840 м средняя 
[Sc|Ac und]
+8.1 +5.5 84 +7  1016.7  2.2  722  282    +12.7       
21 21.12.11 250 (З) >10 км    6/4 1000 м средняя 
[Sc|Ac trans]
+6.4 +4.9 90 +5  1018.7  1.6  723  284           
00 22.12.11 240 (ЮЗ) >10 км  слаб. ливневой дождь  10/8 800 м кучево-дожд., средняя 
[Cb cap|Ac und]
+5.9 +3.1 82 +5  1019.8  0.9  724  285           
03 22.12.11 230 (ЮЗ) >10 км  {ливн. осадки}  8/3 600 м кучево-дожд., средняя 
[Cb calv|Ac trans]
+4 +2.9 92 +3  1021.1  0.9  725  287           
06 22.12.11 250 (З) >10 км  {ливн. осадки}  9/0 средняя, верхняя 
[Ac trans|Ci fib]
+3.3 +0.9 84 +2  1022.6  1.2  726  289  +2.5       
09 22.12.11 180 (Ю) >10 км    8/3 600 м средняя 
[Sc|Ac trans]
+8.3 +3.1 70 +9  1021.3  1.2  725  283           
12 22.12.11 120 (ЮВ) >10 км    8/3 600 м средняя 
[Sc|Ac trans]
+8.4 +3.1 69 +8  1020.5  -0.7  725  283           
15 22.12.11 110 (В) >10 км    6/6 1000 м 
[Sc]
+5.1 +2.9 86 +3  1021.1  725  286    +9.7       
18 22.12.11 130 (ЮВ) >10 км    8/4 1000 м средняя 
[Sc|Ac trans]
+3.8 +3 95 +3  1020.8  -0.5  724  287    +9.7       
21 22.12.11 120 (ЮВ) >10 км    4/0 средняя 
[Ac trans]
+2.2 +1.6 96 1020  -1.1  724  289           
00 23.12.11 130 (ЮВ) 0100 м  туман  ?/?  
+2.2 +1.9 98 +1  1018.5  -1.4  723  288           
03 23.12.11 130 (ЮВ) 0100 м  туман  ?/?  
+0.7 +0.5 99 -1  1016.8  -1.9  721  290           
06 23.12.11 140 (ЮВ) 0100 м  туман  ?/?  
+1 +0.8 98 -1  1017  0.2  721  289  +0.7         
09 23.12.11 130 (ЮВ) 4000 м  дымка{туман}  10/10 100 м 
[St]
+3.3 +3.1 99 +1  1014.9  -1.5  720  286           
12 23.12.11 140 (ЮВ) 10 км  {туман}  10/8 180 м средняя 
[St|Ac und]
+1.1 +0.8 98 -3  1014.7  -0.7  720  289           
15 23.12.11 140 (ЮВ) 10 км    10/8 180 м средняя 
[St|Ac und]
+2 +1.6 97 -1  1013.9  -0.5  719  287    +3.4       
18 23.12.11 140 (ЮВ) 4000 м  слаб. морось  10/10 100 м 
[St]
+2.2 +1.6 96 -2  1013.2  -0.7  719  287    +3.4       
21 23.12.11 130 (ЮВ) 10 км  {морось}  10/10 210 м 
[St]
+2 +1.4 96 -1  1012.2  -0.9  718  287           
00 24.12.11 140 (ЮВ) 10 км  {морось}  10/10 100 м 
[St]
+1.5 +1.1 97 -2  1011.8  -0.5  718  287           
03 24.12.11 140 (ЮВ) 4000 м  дымка  10/10 60 м 
[St]
+0.7 +0.3 97 -2  1011.2  -0.7  717  288           
06 24.12.11 140 (ЮВ) 4000 м  дымка  10/10 100 м 
[St]
+0.6 +0.3 98 -3  1011.6  0.3  717  288  +0.7    0.0    влажная 
09 24.12.11 140 (ЮВ) >10 км    4/1 200 м верхняя 
[St|Ci fib]
+4.7 +0.8 76 +1  1009.8  -0.8  717  284           
12 24.12.11 110 (В) >10 км    10/0 средняя, верхняя 
[Ac As|Ci]
+2.2 -0.2 84 -1  1010.1  -0.3  717  286           
15 24.12.11 130 (ЮВ) >10 км    8/3 600 м средняя, верхняя 
[Sc|Ac As|Ci]
+0.1 -2.5 83 -2  1012  1.4  718  289    +5.1       
18 24.12.11 100 (В) >10 км    9/3 600 м средняя 
[Sc|Ac trans]
-0.5 -2.5 86 -4  1013.2  718  290    +5.1       
21 24.12.11 120 (ЮВ) >10 км    5/3 600 м средняя 
[Sc|Ac trans]
-2.2 -2.7 96 -6  1014.7  1.1  719  292           
00 25.12.11 140 (ЮВ) >10 км    9/3 300 м средняя 
[Sc|Ac trans]
-2.1 -3.1 93 -5  1015.9  1.1  720  293           
03 25.12.11 120 (ЮВ) >10 км  слаб. крупа  10/5 600 м кучево-дожд., средняя 
[Cb cap|Ac und]
-1.8 -2.8 93 -5  1017  1.1  721  293           
06 25.12.11 130 (ЮВ) 10 км  в посл. час переохл. осадки (гололёд){ливн. осадки} [диам. гололёда 1 мм]  10/4 600 м кучево-дожд., средняя 
[Cb calv|Ac und]
-1.1 -1.6 96 -2  1019  2.1  722  292  -2.9         
09 25.12.11 170 (Ю) 10 км    8/3 1000 м средняя 
[Sc diur, vesp|Ac und]
+2.7 +0.4 85 +3  1019.4  1.1  723  288           
12 25.12.11 330 (СЗ) >10 км    10/6 600 м средняя 
[Sc|Ac und]
+3.6 +1.9 89 +3  1020.9  1.1  724  288           
15 25.12.11 320 (СЗ) >10 км    10/6 600 м средняя 
[Sc diur, vesp|Ac und]
+3.2 +1.7 90 +2  1022.8  1.7  726  289    +3.7       
18 25.12.11 300 (СЗ) >10 км    10/8 540 м средняя 
[Sc|Ac und]
+3.2 +2 92 +2  1024.3  1.5  727  289    +3.7  0.3     
21 25.12.11 290 (З) >10 км    10/8 400 м средняя 
[Sc|Ac und]
+2.6 +1.8 94 +1  1025.8  1.3  728  290           
00 26.12.11 320 (СЗ) >10 км    10/8 600 м средняя 
[Sc|Ac und]
+2 +0.4 89 +3  1027.1  1.1  729  291           
03 26.12.11 290 (З) >10 км    10/8 420 м средняя 
[Sc|Ac und]
+0.9 -0.1 93 -1  1028.2  0.8  729  293           
06 26.12.11 280 (З) 10 км    10/6 500 м средняя 
[Sc|Ac und]
-0.4 -1 96 -3  1030.2  1.7  730  295  -0.5         
09 26.12.11 280 (З) 10 км    10/8 330 м средняя 
[Sc|Ac und]
-0.4 -1.4 93 -4  1030.5  0.3  731  295           
12 26.12.11 270 (З) >10 км    10/8 210 м средняя 
[St|Ac und]
+0.1 -1 92 -4  1030.3  -0.1  731  294           
15 26.12.11 260 (З) 4000 м  дымка  10/10 180 м 
[St]
-0.2 -1 94 -4  1031.1  0.6  731  295    +1.1       
18 26.12.11 260 (З) 10 км    10/8 150 м средняя 
[St|Ac und]
+0 -0.7 95 -5  1030  -1  730  294    +1.1       
21 26.12.11 260 (З) 13-20{20}  >10 км    3/3 300 м 
[Sc]
-0.9 -3.5 83 -7  1029.3  -0.8  730  295           
00 27.12.11 270 (З) 13-19{23}  >10 км    ясно 
-1.5 -3.3 88 -8  1028  -1.4  729  296           
03 27.12.11 270 (З) 14-18{23}  >10 км    10/8 420 м средняя 
[Sc|Ac und]
+0.9 -0.4 91 -5  1026.7  -0.7  728  292           
06 27.12.11 270 (З) 13{23}  4000 м  слаб. дождь  10/4 средняя 
[Frnb|Ac und]
+0.7 -0.1 94 -5  1027.5  0.7  729  293  -1.6         
09 27.12.11 270 (З) 15{22}  3000 м  дождь  10/6 200 м средняя 
[Frnb|Ac und]
+0.9 +0.2 95 -5  1026.5  -0.9  728  292           
12 27.12.11 270 (З) 16-26{26}  4000 м  дымка{дождь}  10/8 300 м средняя 
[Sc|Ac und]
+2.4 +1 90 -3      728  291           
15 27.12.11 270 (З) 12{26}  10 км  слаб. ливневой дождь  10/8 300 м кучево-дожд., средняя 
[Cb cap|Ac und]
+2.3 +1.4 94 -3  1027.2  0.7  729  291           
18 27.12.11 270 (З) 14-19{23}  4000 м  слаб. дождь{ливн. осадки}  10/8 300 м средняя 
[Sc diur, vesp|Ac und]
+2.5 +1.8 95 -3  1026.1  -1  728  290    +2.6  0.4     
21 27.12.11 280 (З) 15{24}  10 км  в посл. час дождь  10/8 300 м средняя 
[Sc|Ac und]
+3 +1.2 88 -2  1024.4  -1.5  727  289           
00 28.12.11 270 (З) 15-22{26}  >10 км  {дождь}  10/8 300 м средняя 
[Sc|Ac und]
+3.2 +0.2 81 -2  1023.1  -1.5  726  289           
03 28.12.11 270 (З) 18-24{26}  >10 км    5/0 средняя 
[Ac trans]
+3.7 -0.1 76 -2  1021.4  -1.5  725  288           
06 28.12.11 260 (З) 16{26}  >10 км    8/8 930 м 
[Sc diur, vesp]
+3.9 +0.9 81 -1  1021.3  725  288  +2.2    0.0     
09 28.12.11 270 (З) 13-20{27}  >10 км    10/10 600 м 
[Sc diur, vesp]
+4.3 +1.9 84 1021.1  -0.1  725  287           
12 28.12.11 280 (З) 15-21{28}  10 км  {дождь}  10/10 300 м 
[Sc diur, vesp]
+3.9 +2.6 91 -1  1019.5  -1.6  723  287           
15 28.12.11 270 (З) 12-20{26}  >10 км  слаб. ливневой дождь  10/8 300 м кучево-дожд., средняя 
[Cb calv|Ac trans]
+3.8 +2.9 94 -1  1022.6  2.9  726  288           
18 28.12.11 310 (СЗ) 8{21}  10 км  слаб. ливневой дождь со снегом  10/8 180 м кучево-дожд., средняя 
[Cb cap|Ac und]
+2 +1.2 94 -2  1026.1  2.9  728  291    +4.6     
21 28.12.11 290 (З) >10 км  {ливн. осадки}  10/6 400 м кучево-дожд., средняя 
[Cb calv|Ac trans]
+1 -0.5 90 -3  1028.3  1.9  729  293           
00 29.12.11 290 (З) >10 км  {ливн. осадки}  3/3 300 м 
[Sc]
-0.1 -1.3 92 -4  1029.4  1.9  730  294           
03 29.12.11 280 (З) >10 км    3/3 600 м 
[Sc]
-0.5 -1.6 92 -3  1029.9  0.4  730  295           
06 29.12.11 260 (З) >10 км    3/3 300 м средняя 
[Sc|Ac trans]
-0.3 -1.2 93 -2  1031.2  1.2  731  295  -2.5       
09 29.12.11 260 (З) >10 км    3/3 600 м 
[Sc]
+3.1 -0.6 77 +2  1030  -0.5  731  291           
12 29.12.11 320 (СЗ) >10 км    3/3 600 м 
[Sc]
+4.6 -1.7 64 +5  1028.4  -1.2  730  289           
15 29.12.11 080 (В) >10 км    1/0 средняя 
[Ac trans]
-2.3 -6.2 75 -5  1029.2  -0.6  729  297    +4.8       
18 29.12.11 100 (В) >10 км    ясно 
-3.7 -5.6 87 -7  1028.2  -1.2  728  298    +4.8       
21 29.12.11 140 (ЮВ) >10 км    ясно 
-3.5 -5.2 88 -6  1025.7  -2.3  727  297           
00 30.12.11 140 (ЮВ) >10 км    3/0 средняя 
[Ac trans]
-1.9 -2.8 94 -6  1023.4  -1.8  725  295           
03 30.12.11 130 (ЮВ) >10 км    3/0 средняя 
[Ac trans]
-1.7 -2.8 92 -5  1021  -2.2  724  294           
06 30.12.11 140 (ЮВ) >10 км    ясно 
-0.6 -2.2 89 -4  1019.5  -1.1  723  292  -4.2         
09 30.12.11 130 (ЮВ) >10 км    3/3 300 м 
[Sc]
+1 -1.6 83 -3  1017.5  -1.6  722  290           
12 30.12.11 080 (В) >10 км    3/3 300 м средняя 
[Sc|Ac trans]
+1.8 -1.4 79 +1  1016.3  -1  721  289           
15 30.12.11 140 (ЮВ) >10 км    6/0 верхняя 
[Ci fib]
-1.6 -2.7 92 -3  1017.1  0.1  721  292    +2.2       
18 30.12.11 250 (З) >10 км    ясно 
-1 -2.8 88 -3  1017.1  0.1  721  292    +2.2       
21 30.12.11 тихо ()   >10 км    4/0 верхняя 
[Ci fib]
-0.3 -4.8 72 -0  1017.1  0.1  721  291           
00 31.12.11 200 (Ю) >10 км    3/0 верхняя 
[Ci fib]
+1.1 -4.5 66 +2  1017.8  722  290           
03 31.12.11 210 (ЮЗ) >10 км    3/0 верхняя 
[Ci fib]
-0.6 -4.5 75 -1  1018  -0.2  722  292           
06 31.12.11 170 (Ю) >10 км    9/0 верхняя 
[Ci fib]
+2 -1.4 78 +1  1018.2  0.7  722  289  -3         
09 31.12.11 140 (ЮВ) >10 км    8/0 верхняя 
[Ci fib]
+7.8 -0.6 55 +7  1016  -0.9  722  283           
12 31.12.11 130 (ЮВ) >10 км    8/0 верхняя 
[Ci fib]
+8 -1.6 51 +7  1015.5  -0.5  721  282           
15 31.12.11 130 (ЮВ) >10 км    6/0 верхняя 
[Ci fib]
+3.5 -1.7 69 +1  1016.7  0.3  722  287    +8.8       
18 31.12.11 140 (ЮВ) >10 км    4/0 верхняя 
[Ci fib]
+1.5 -1.1 83 -1  1017  0.1  721  289    +8.8       
21 31.12.11 130 (ЮВ) >10 км    5/0 верхняя 
[Ci fib]
+1.3 -2.1 78 -1  1016.4  0.1  721  289           
00 01.01.12 130 (ЮВ) >10 км    4/0 верхняя 
[Ci fib]
+0.2 -2.5 82 -2  1016.7  721  291           
03 01.01.12 120 (ЮВ) >10 км    4/0 верхняя 
[Ci fib]
+0.3 -2.8 80 -2  1016  -0.6  720  290           
Время (UTC), дата Ветер
(°,м/с) 
Видим.   Явления Облачность Т
(°С)
Тd
(°С)
f(%) Тe
(°С)
Pmin
(гПа)
dP
(гПа)
Po
(мм)
O2
(г/м3)
Тmin Tmax R s Состояние
почвы